星链-30841 (STARLINK-30841 )

导读

STARLINK-30841是美国SpaceX公司星链星座的一员,于2023年11月3日发射升空。星链计划旨在打造全球覆盖的低轨互联网卫星星座,计划部署上万颗卫星,可为全球提供高速低时延的宽带互联网服务,同时该卫星具备一定的军事应用潜力,能增强通信导航与空间感知能力,是星链星座构建全球天基通信网络的重要组成部分。

Basic Information
目录编号:
58208
目录名称:
STARLINK-30841
国际标识:
2023-170C
轨道中心:
EARTH
卫星名称:
星链-30841
卫星全名:
星链-30841 (STARLINK-30841 )
卫星状态:
在轨 (已飞行1043 天)
发射日期:
2023-11-03 UTC
国别 :
美国 (US)
星等 :
--
This satellite is enrolled in the Space Conjunction Data Service (SCDS) and the current flight risk assessment level is: High Risk
Orbit Information
数据来源 国际轨道数据
星历时间: 2026-09-11T15:15:02+0800
10小时前
查看轨道信息
半长轴: 6861.212km
偏心率: 0.0001317
轨道倾角: 43.004°
近地点辐角 268.353°
升交点赤经 226.214°
平近点角 91.717°
近地点: 482.171km
远地点: 483.979km
周期: 94.267分钟
每日圈数: 15.275716
Detailed Information
固有亮度:
5
最大亮度:
0.3
卫星平台:
Starlink v2.0 mini
覆盖范围:
全球
运营商:
太空探索技术公司
运营商所在国:
美国
制造商(研发单位):
太空探索技术公司
制造商所在国:
美国
使用方式:
暂无
Satellite Introduction
星链(Starlink)计划是由太空探索技术公司(SpaceX)提出的一个巨型低轨卫星互联网星座项目,计划在2019年至2024年间在太空搭建由约1.2万颗卫星组成的“星链”网络,其中1584颗将部署在地球上空550千米处的近地轨道,并从2020年开始工作。该卫星仍在工作。
2D Orbit Map
3D Orbit Map
Orbit Altitude Analysis Chart
Orbit Inclination Analysis Chart
Orbit Comprehensive Analysis Chart
View Comprehensive Chart
Conjunction Data List
Event ID Objects TCA Miss Dist (km) Collision Risk Probability Collision Risk Index (CRI) Action
CDM_260913-122305-820806-257121
2026-09-13T
12:23:18+0000
0.420 km
远距离
2.084344E-4 高风险 0.81
CDM_260914-031705-820806-257121
2026-09-14T
03:17:46+0000
0.482 km
远距离
1.5353E-4 高风险 0.79
CDM_260913-172505-820806-379521
2026-09-13T
17:25:28+0000
0.533 km
远距离
1.374984E-4 高风险 0.78
CDM_260914-033405-820806-705621
2026-09-14T
03:34:58+0000
0.932 km
远距离
2.658921E-5 中风险 0.63
CDM_260913-154805-820806-705621
2026-09-13T
15:48:49+0000
1.069 km
极远距离
1.656489E-5 中风险 0.59
CDM_260910-210905-820806-379522
2026-09-10T
21:09:37+0000
1.075 km
极远距离
1.583459E-5 中风险 0.59
CDM_260914-020205-820806-376821
2026-09-14T
02:02:00+0000
1.144 km
极远距离
1.292843E-5 中风险 0.57
CDM_260913-155005-820806-376821
2026-09-13T
15:50:01+0000
1.446 km
极远距离
5.811065E-6 低风险 0.5
CDM_260913-104905-820806-257121
2026-09-13T
10:49:08+0000
1.394 km
极远距离
5.540686E-6 低风险 0.5
CDM_260914-081905-820806-379521
2026-09-14T
08:19:55+0000
1.731 km
极远距离
3.273069E-6 低风险 0.45
Miss Distance Evolution Trend with All Objects
Collision Probability Evolution Trend with All Objects